GFSFLT2_prec_cthk_000.txt.gz
RH
63 67 63 66 72 66 67 66 62 65 66 70 71 67 56 42 32 28 23 22 24 33 33 33 38 44 46
65 68 68 70 80 73 68 64 63 65 67 71 67 60 50 37 29 19 18 22 24 26 28 33 38 41 46
68 65 68 73 74 74 70 65 67 69 70 65 63 57 42 34 23 16 16 17 19 24 34 37 39 40 41
68 67 75 74 78 84 67 67 73 71 68 64 60 51 38 29 19 16 16 16 21 29 38 40 43 42 41
70 75 76 79 83 81 66 72 72 71 67 64 59 43 35 25 17 16 16 17 26 30 34 41 44 45 42
72 77 81 86 82 72 69 74 72 71 70 64 56 39 31 20 16 16 16 18 27 33 34 38 42 46 47
76 81 83 83 80 66 70 73 72 70 70 63 48 37 29 19 15 15 17 19 28 33 35 39 43 46 47
84 91 89 84 73 67 72 72 72 73 69 57 46 39 27 19 15 15 15 19 25 27 34 41 49 57 58
93 92 91 86 73 71 72 74 76 77 67 50 42 33 19 15 16 14 15 22 27 34 42 47 52 58 61
94 96 91 83 75 73 76 80 76 74 62 48 41 27 17 17 16 17 23 28 34 41 46 56 60 63 63
98 93 89 82 77 78 79 81 76 67 55 43 30 23 20 22 17 21 27 33 40 48 53 61 65 67 65
93 91 87 79 80 83 83 79 73 60 48 37 26 19 18 19 23 28 35 37 45 55 60 64 68 71 69
93 90 86 81 85 83 85 77 68 53 42 30 24 19 17 17 26 29 38 46 53 59 63 62 69 72 72
91 91 84 86 86 86 82 74 61 48 36 26 20 16 17 23 27 31 39 51 56 60 61 63 72 76 75
91 92 88 91 88 87 79 68 53 44 29 23 16 16 21 25 31 39 46 52 56 61 67 66 72 74 73
93 90 94 89 91 85 73 59 48 34 25 19 15 18 22 30 38 44 49 53 57 65 66 68 65 69 74
92 92 93 95 89 78 65 53 39 26 21 15 18 23 31 42 42 45 53 55 59 61 63 65 66 72 73

GFSFLT2_prec_cthk_003.txt.gz
RH
81 81 85 76 72 72 75 75 75 76 70 72 70 73 76 69 61 53 43 34 32 27 24 27 29 30 35
81 86 81 74 74 74 78 78 78 75 76 72 73 76 70 65 56 49 38 33 24 22 21 21 32 35 37
82 88 87 76 74 72 76 80 81 83 78 67 73 72 66 61 56 45 35 27 19 14 19 26 34 37 40
86 90 89 83 83 75 79 82 86 89 72 69 69 69 65 63 54 40 32 23 16 16 22 27 30 39 42
87 89 88 93 86 79 83 85 89 87 70 69 68 68 66 63 49 37 26 18 14 20 23 27 31 37 42
89 92 85 94 92 85 84 84 84 79 70 69 69 70 68 58 43 33 21 14 13 22 24 29 32 36 41
88 89 88 91 94 91 86 89 83 73 71 71 72 74 65 51 39 26 16 13 13 22 27 30 38 44 49
92 93 88 89 96 96 94 87 82 72 70 72 78 71 58 45 32 21 12 12 12 17 23 30 38 44 49
96 96 94 93 97 97 89 88 81 71 75 78 76 63 50 36 24 15 12 11 16 21 29 36 41 48 57
99 98 97 99 98 92 91 87 74 72 82 82 70 57 42 29 21 13 13 16 23 27 34 40 45 54 61
99 98 98 95 96 92 90 89 77 80 85 77 62 49 34 23 14 12 15 21 25 32 41 49 54 61 63
99 99 98 98 96 87 89 81 81 84 84 66 55 40 27 18 13 14 19 24 33 43 50 53 56 60 64
98 98 99 95 90 94 92 82 85 85 72 58 46 31 24 13 14 18 24 35 42 48 50 53 58 61 66
98 97 96 94 93 96 88 88 86 77 62 52 35 26 14 14 20 25 32 38 42 46 49 52 57 63 66
98 98 95 92 98 93 94 87 78 67 56 40 28 18 13 18 24 31 35 38 42 48 53 56 56 60 64
98 96 95 97 98 95 91 81 70 59 45 33 22 14 17 23 31 35 38 41 47 52 56 59 63 65 66
97 95 98 98 97 96 86 75 61 49 36 25 14 17 23 30 34 37 43 47 53 57 60 64 66 70 72

GFSFLT2_prec_cthk_006.txt.gz
RH
75 80 80 82 83 94 90 86 85 79 77 81 83 82 79 73 69 71 65 61 55 49 40 40 32 25 26
79 85 83 87 89 94 96 93 92 79 78 79 79 81 85 72 69 67 64 60 53 45 37 29 27 20 31
80 91 90 89 93 97 99 96 97 88 78 82 81 88 89 71 69 67 64 58 50 43 31 21 21 23 31
89 89 86 88 96 98 95 95 98 96 84 86 85 91 80 71 70 68 63 57 47 37 24 24 21 22 30
90 90 88 88 93 97 97 97 97 98 93 89 93 90 76 71 70 67 62 51 41 29 25 22 21 23 30
98 86 88 90 93 98 98 98 97 97 96 93 93 84 73 73 71 66 58 48 35 22 16 21 22 27 31
91 92 90 90 94 96 98 98 96 98 98 98 88 79 75 76 69 63 53 42 25 17 11 20 26 31 37
90 91 89 99 96 98 97 98 97 98 98 92 85 82 76 76 69 58 47 32 19 11 11 16 27 37 44
93 92 97 95 98 98 98 97 98 98 94 87 83 77 79 73 64 49 36 22 12 11 16 25 33 40 46
94 94 95 98 98 99 96 98 98 97 94 91 84 83 73 69 54 41 25 13 12 16 23 31 39 43 47
94 94 97 98 98 98 98 98 97 96 93 86 84 78 70 57 43 29 14 12 15 20 26 33 41 48 52
97 97 98 97 99 98 98 98 97 93 91 91 82 71 58 45 31 18 12 15 20 27 33 41 44 49 52
99 96 99 99 98 98 99 94 93 96 92 87 71 59 48 33 20 13 16 22 28 34 39 41 45 47 50
98 98 98 98 98 97 95 98 98 96 87 72 60 50 36 22 15 16 21 28 33 35 38 43 47 51 53
99 98 98 99 98 98 98 98 98 88 71 61 51 37 24 19 16 22 29 32 34 39 42 47 51 53 56
98 98 98 98 99 98 98 98 89 72 62 50 38 25 20 18 23 28 32 36 40 44 48 50 52 59 62
98 98 98 98 98 98 98 92 74 62 50 40 26 21 18 24 29 31 36 41 47 51 56 58 60 66 71

GFSFLT2_prec_cthk_009.txt.gz
RH
84 81 83 83 81 79 80 83 88 94 94 96 98 97 96 88 94 87 87 82 71 66 62 60 61 56 48
78 83 83 89 90 82 84 87 83 94 95 93 96 99 98 88 95 88 88 84 68 65 63 62 54 51 46
79 85 82 82 90 87 92 92 90 93 98 95 94 99 98 98 97 94 91 75 67 65 64 62 51 42 44
79 76 85 81 85 90 90 94 95 92 94 98 93 95 98 98 97 94 89 72 69 69 67 58 48 40 36
69 74 76 98 76 98 93 98 94 92 96 99 97 98 97 98 95 97 80 74 74 71 64 54 45 40 28
71 71 67 77 98 97 91 98 98 99 97 98 97 98 98 99 97 89 77 77 76 69 58 46 39 32 22
75 70 74 77 86 98 89 89 94 96 98 99 97 99 98 98 95 88 85 79 74 62 51 41 29 24 22
64 62 78 81 84 97 92 98 98 97 98 99 99 98 99 96 93 86 81 77 64 53 44 28 20 19 25
56 58 67 84 91 97 95 98 98 97 99 99 98 98 97 97 87 87 79 67 56 50 33 20 17 23 30
53 58 68 84 94 94 97 98 99 99 98 98 99 97 96 95 91 80 67 55 47 35 22 21 26 28 30
61 74 89 91 95 97 99 99 99 98 99 98 98 98 96 86 80 68 55 48 35 22 16 18 23 28 35
68 85 96 96 96 99 99 99 98 98 98 98 98 98 95 81 70 56 47 34 22 18 17 22 28 33 39
82 94 98 99 98 98 98 98 98 98 99 99 98 90 77 67 52 42 33 22 18 19 25 30 34 36 39
92 97 98 98 98 98 98 98 98 98 98 97 87 76 61 50 43 30 20 18 22 27 31 33 36 39 42
94 98 98 98 98 98 98 98 98 98 97 84 71 56 48 41 26 20 20 26 30 32 34 39 43 47 50
98 98 98 98 98 98 98 98 97 96 81 63 53 45 36 24 23 24 27 32 34 37 41 44 48 52 53
97 98 97 97 97 97 97 97 95 78 59 50 41 32 25 26 26 29 31 34 39 45 51 55 57 61 61

GFSFLT2_prec_cthk_012.txt.gz
RH
71 72 76 81 81 81 81 84 84 88 88 87 84 88 91 96 95 93 94 93 95 89 96 89 77 67 71
62 64 65 65 70 73 77 84 85 88 90 92 88 91 93 97 98 99 97 98 94 97 94 87 77 67 75
59 57 59 62 64 67 69 80 84 92 97 93 93 93 95 96 99 99 99 98 96 99 92 86 71 69 77
65 62 58 58 67 67 67 66 74 98 96 96 94 95 98 99 98 97 98 99 98 99 91 90 70 72 73
55 54 57 61 63 66 67 68 68 90 93 92 92 99 95 99 99 98 98 99 99 97 92 79 77 72 68
52 51 48 54 58 63 72 74 68 73 91 87 96 97 96 99 98 97 99 99 98 97 88 80 82 80 70
53 49 51 49 56 59 68 71 78 74 83 89 99 99 99 97 98 99 98 98 97 95 90 88 83 69 62
55 47 50 48 57 60 64 65 71 81 86 89 99 98 98 99 98 98 98 98 98 96 93 84 71 61 55
54 51 50 51 57 67 66 71 65 77 90 97 98 98 98 99 98 98 98 98 98 94 84 74 65 53 48
53 53 59 59 61 71 72 74 81 85 92 99 96 99 98 98 98 98 98 98 97 88 76 66 58 47 33
58 60 66 67 67 71 83 94 96 97 98 99 98 98 98 98 98 98 98 96 88 73 65 64 49 36 28
69 71 75 74 75 79 97 98 98 98 98 98 98 98 98 98 98 98 95 79 69 65 54 39 29 31 29
84 87 84 83 95 99 98 98 98 98 98 98 98 98 97 98 94 84 73 65 55 42 32 25 23 22 26
87 90 90 98 98 98 98 98 98 98 98 97 97 97 95 84 73 65 57 44 34 27 23 22 25 29 32
91 94 98 97 97 98 97 98 98 97 97 97 95 84 74 64 53 42 34 28 24 25 26 29 30 33 36
97 97 97 97 97 97 97 97 97 97 97 86 75 61 50 44 36 29 26 28 28 30 31 34 38 42 46
97 96 97 97 97 97 97 97 98 92 79 62 51 45 35 32 30 31 30 30 32 35 41 48 56 63 64

GFSFLT2_prec_cthk_015.txt.gz
RH
61 59 61 66 66 72 72 73 73 73 76 82 87 90 96 95 92 91 89 90 89 96 98 98 98 94 90
55 58 60 58 59 62 63 65 69 69 72 77 77 89 92 94 94 92 92 94 94 96 99 97 99 98 98
51 55 53 57 59 58 63 62 60 65 80 77 76 82 92 92 97 94 96 96 95 98 98 99 98 98 98
46 43 46 46 54 58 56 56 52 58 59 64 72 75 80 82 93 97 98 95 99 99 99 98 99 99 98
46 48 47 50 56 55 54 49 45 47 47 49 58 66 70 88 92 96 99 95 99 99 99 99 99 98 96
38 41 43 54 53 54 54 54 46 47 52 46 54 56 70 78 90 93 95 98 98 98 99 99 98 99 98
44 44 47 51 55 54 56 56 51 47 55 52 60 57 61 77 90 92 96 99 98 99 99 99 98 99 94
44 51 52 53 56 56 55 54 47 44 52 51 54 54 57 76 86 93 99 98 98 98 99 99 98 98 96
43 52 56 54 59 66 60 61 53 49 53 56 59 57 61 88 98 97 99 98 98 98 98 98 98 98 94
42 53 60 61 65 74 73 69 65 58 55 61 63 72 71 91 98 98 98 98 98 98 98 98 97 93 78
61 64 70 72 74 74 75 77 73 69 68 77 82 90 91 97 99 98 98 98 98 98 98 98 94 83 79
75 77 75 73 74 78 83 81 78 75 87 96 97 98 98 98 98 98 98 97 97 97 98 91 85 79 65
84 84 85 86 91 93 87 91 97 97 98 98 98 98 98 98 98 98 97 97 97 96 89 85 71 61 55
95 96 94 93 94 93 97 97 97 97 97 98 98 98 98 98 98 97 97 96 96 85 71 65 56 45 36
96 94 94 94 96 97 97 97 97 97 97 97 97 97 93 92 89 90 83 69 61 55 48 39 31 28 24
96 94 94 97 97 97 97 97 97 97 97 97 93 87 79 70 63 57 50 42 36 32 29 29 26 28 31
96 95 96 97 97 97 97 97 97 97 87 76 68 60 53 47 41 36 33 31 32 30 29 31 33 36 42

GFSFLT2_prec_cthk_018.txt.gz
RH
41 45 45 39 43 57 62 67 67 63 65 70 74 81 84 85 90 94 98 97 97 96 95 94 95 86 94
39 34 34 33 38 40 41 46 53 65 65 67 70 73 82 84 86 86 89 94 94 98 97 96 95 93 94
30 22 21 21 26 30 37 44 47 54 61 64 69 71 77 83 89 86 82 85 91 93 95 99 96 98 94
38 35 34 29 27 27 29 39 44 47 51 54 54 53 52 63 67 82 85 84 85 88 92 95 97 96 98
35 34 32 31 30 29 34 34 40 51 57 56 53 48 51 47 50 60 71 81 89 87 91 95 99 97 97
35 34 30 32 32 34 37 40 38 47 56 57 58 59 55 50 52 55 61 67 77 79 89 90 98 98 98
41 37 38 35 33 37 45 48 44 43 55 52 56 51 50 43 39 52 54 59 75 75 85 94 98 99 98
40 44 46 46 53 54 52 52 49 46 53 51 56 53 54 51 45 44 52 57 68 76 88 97 99 99 98
38 44 47 47 53 61 61 66 58 54 54 56 52 54 52 49 47 54 54 57 69 80 94 98 98 98 98
36 40 52 62 73 76 75 72 68 59 59 63 58 57 56 51 52 55 60 62 81 87 96 99 98 98 98
47 60 78 84 87 86 81 77 74 69 68 69 62 63 63 60 62 73 72 71 93 98 96 98 98 98 98
73 83 85 87 87 88 87 84 81 75 84 82 72 72 74 76 82 83 81 92 97 98 97 97 97 97 97
86 87 89 90 93 91 87 87 91 95 94 91 94 95 96 97 98 98 95 97 98 97 97 97 97 97 96
92 97 96 95 91 90 92 96 97 97 96 96 97 97 97 97 97 97 97 97 97 97 97 97 97 97 95
98 96 92 92 93 94 97 97 97 97 97 97 97 98 98 97 97 97 97 97 97 97 97 97 97 91 80
96 94 93 93 96 96 97 97 97 97 97 97 97 97 97 97 97 97 97 97 97 96 91 81 74 68 59
97 94 96 97 97 97 97 97 97 97 96 89 81 74 69 70 84 81 69 58 62 60 53 48 44 37 33

GFSFLT2_prec_cthk_021.txt.gz
RH
32 28 40 37 29 24 22 18 21 26 33 36 41 52 71 73 73 79 89 93 96 94 97 97 97 98 95
37 44 41 34 30 28 29 27 19 16 24 31 36 44 50 65 74 74 79 85 88 91 94 93 97 98 99
40 33 33 36 35 35 33 34 24 20 23 24 25 31 43 49 65 74 76 85 87 86 86 90 91 91 90
41 32 30 30 33 33 28 28 28 29 23 25 25 27 33 45 50 64 72 80 83 86 84 84 84 86 91
43 44 43 38 31 29 30 28 24 25 26 24 26 27 31 41 49 48 55 56 69 80 85 92 88 81 80
50 49 43 39 35 37 41 40 43 38 42 40 37 33 31 35 44 48 51 58 59 60 68 70 76 80 79
52 49 46 36 43 43 44 45 47 40 44 46 42 44 39 37 45 52 56 53 60 63 55 61 68 75 73
46 43 41 42 51 57 56 56 53 48 62 63 53 49 46 46 46 53 57 54 51 53 59 61 63 63 69
40 42 50 52 58 65 66 75 67 63 73 74 61 62 60 56 52 55 61 56 50 51 50 50 52 66 78
30 38 51 63 78 87 87 87 84 69 80 77 73 72 63 57 56 59 62 57 56 54 55 58 60 76 83
41 54 75 89 92 95 95 91 85 78 82 78 73 74 70 59 60 62 60 58 58 63 64 67 73 84 91
62 83 92 96 96 93 90 89 87 80 82 81 73 77 75 71 68 66 66 65 67 69 66 70 86 91 96
81 91 97 97 96 95 94 90 95 95 93 89 86 86 82 77 75 72 71 72 81 78 73 85 89 96 97
96 96 95 95 94 92 94 97 97 97 97 97 97 97 93 86 82 78 83 87 85 82 81 91 97 97 97
98 96 95 96 94 97 97 97 97 97 97 97 97 96 95 94 93 93 96 98 93 91 97 98 97 97 97
98 98 96 96 97 97 97 97 97 97 97 97 97 97 98 97 98 97 97 97 97 97 97 97 97 97 97
98 98 98 97 98 97 97 97 97 95 89 88 82 86 97 97 97 97 97 97 97 97 97 97 97 97 96

GFSFLT2_prec_cthk_024.txt.gz
RH
26 22 24 29 32 32 28 33 35 40 39 33 30 29 32 36 35 40 47 61 70 75 83 91 91 95 96
35 36 30 32 37 38 35 35 36 39 39 35 26 25 23 24 26 33 36 47 57 70 78 82 86 90 88
36 35 35 34 35 36 36 37 36 29 33 36 31 33 23 22 22 23 28 34 47 55 70 75 80 88 86
42 46 45 38 41 40 38 31 34 37 33 34 42 38 32 27 26 25 25 29 38 51 58 73 74 82 87
51 54 43 36 39 39 44 39 32 35 40 41 38 42 43 41 36 27 29 30 33 46 59 69 81 83 79
57 48 37 44 46 45 43 43 43 32 49 44 42 40 36 34 34 35 32 31 31 38 56 66 76 76 81
55 47 47 42 46 44 47 55 49 40 58 55 46 47 39 37 36 35 34 35 35 34 45 57 61 63 71
53 49 51 39 48 52 57 60 63 75 84 74 69 59 54 49 44 43 42 43 43 40 45 58 53 58 55
47 47 40 43 53 65 80 86 80 86 96 91 83 74 69 60 55 52 54 53 50 44 49 55 54 63 54
38 36 43 55 78 98 95 89 90 88 97 97 86 79 68 65 64 60 59 56 52 47 51 57 54 57 59
47 55 68 82 94 98 98 97 95 91 91 89 86 83 78 73 66 63 64 61 54 47 49 57 54 58 59
71 78 91 96 95 97 98 98 96 97 96 94 87 85 81 79 76 72 70 62 58 53 61 60 60 65 65
90 96 97 96 96 95 94 95 97 98 97 97 97 88 85 83 82 78 74 69 63 63 66 65 68 69 78
97 96 94 94 96 98 98 97 97 97 97 97 97 92 97 88 80 77 75 72 72 73 74 73 74 79 81
98 97 98 98 98 98 97 97 97 97 97 97 97 97 95 89 86 85 80 79 82 84 88 81 81 84 86
98 98 98 98 98 98 98 98 97 97 97 97 97 96 95 97 97 88 85 82 88 93 93 87 83 86 97
98 98 98 98 98 97 95 92 88 84 80 76 91 97 97 97 94 96 97 98 98 95 91 89 85 93 97

GFSFLT2_prec_cthk_027.txt.gz
RH
26 25 23 28 27 34 34 35 35 35 35 34 35 36 33 37 44 44 42 42 45 49 53 66 78 83 78
32 31 29 26 32 38 44 40 37 28 29 37 41 37 36 30 39 44 44 43 42 40 37 42 58 65 79
38 36 36 39 42 48 46 34 25 30 40 40 36 36 39 38 35 42 44 44 43 42 37 40 44 50 59
44 47 50 45 56 54 36 30 32 36 36 28 32 39 40 43 40 44 49 42 43 40 41 37 38 47 52
50 54 56 50 50 45 42 35 30 37 34 36 49 54 47 45 47 47 48 51 46 39 36 32 33 40 45
58 59 51 52 45 48 49 43 34 44 52 41 61 52 54 56 51 48 47 55 44 34 33 31 30 34 37
58 53 54 46 48 49 45 47 49 59 75 62 84 74 79 74 72 61 50 52 51 43 34 30 31 33 37
55 55 54 52 53 51 58 64 73 85 92 83 93 94 88 83 75 65 58 49 50 46 40 35 32 31 35
56 52 51 53 58 66 74 83 83 88 95 94 93 95 93 85 71 66 63 60 51 45 38 37 37 33 33
45 51 58 65 80 94 96 87 90 87 93 92 87 91 91 82 79 76 70 63 57 50 44 41 38 35 33
64 70 85 95 97 98 98 97 92 90 92 93 90 90 88 82 84 75 70 63 59 51 44 40 39 39 39
83 94 96 95 95 96 97 97 97 95 96 96 93 90 86 86 85 74 73 67 61 55 51 48 46 48 61
96 96 96 98 98 97 97 98 98 98 98 98 98 96 85 84 82 76 75 70 66 67 64 56 56 63 68
98 98 98 98 98 98 98 98 98 98 98 98 98 97 93 87 82 77 76 75 74 73 69 67 77 68 66
98 98 98 98 98 98 98 98 97 95 93 94 97 96 97 97 84 79 78 80 78 81 83 92 91 82 77
98 98 98 98 97 95 96 93 90 91 90 97 97 97 97 90 84 83 84 84 81 83 82 81 83 84 87
94 91 91 92 93 93 95 95 97 97 97 89 98 97 97 97 97 90 87 88 87 87 88 88 81 84 88

GFSFLT2_prec_cthk_030.txt.gz
RH
23 23 24 25 24 30 34 37 36 38 45 44 38 32 39 45 47 45 44 40 40 43 48 51 51 54 54
29 31 30 29 27 30 35 43 45 45 48 43 39 42 52 50 38 36 38 45 43 43 47 49 46 43 47
40 37 37 35 37 40 46 46 43 44 42 38 43 40 32 40 44 50 44 44 44 50 51 52 49 46 45
55 49 44 45 53 51 42 42 41 40 37 37 38 35 38 45 47 50 49 45 48 49 52 55 54 44 41
55 53 59 51 50 45 47 39 35 43 38 32 39 41 41 47 50 51 49 46 46 49 52 59 67 50 42
63 59 49 49 51 48 48 50 42 53 54 55 68 63 64 66 70 72 72 65 65 59 60 58 64 57 44
60 56 54 54 54 56 64 65 67 73 81 68 76 75 85 86 90 95 89 81 72 61 55 54 59 51 40
58 57 57 59 65 69 71 75 81 86 95 86 90 80 86 88 94 97 97 86 74 61 49 46 53 50 45
57 54 60 70 86 92 91 91 86 90 92 91 86 84 89 86 90 95 89 86 77 67 55 47 50 47 41
52 67 92 95 100 99 98 95 93 91 90 92 90 94 88 90 91 87 82 78 73 63 55 49 49 46 38
91 94 96 98 99 99 97 97 95 94 91 93 96 97 92 89 84 84 85 76 70 63 56 49 47 43 47
95 97 98 97 97 98 98 98 99 98 97 98 97 99 94 87 86 81 82 77 74 66 59 50 43 43 38
97 98 99 98 98 97 97 98 97 98 98 98 98 98 96 85 85 83 80 78 76 72 64 58 47 41 39
98 98 98 97 98 98 98 97 97 97 98 98 97 98 93 85 84 84 80 80 75 72 74 63 57 51 45
98 97 97 98 98 98 98 98 98 97 97 96 97 96 92 88 84 83 82 80 74 75 78 70 63 60 59
98 98 98 97 97 97 98 97 97 98 98 97 96 90 86 85 84 82 82 83 82 94 91 93 77 76 85
98 98 98 98 98 97 97 98 98 98 95 97 97 95 86 86 82 84 88 85 82 90 95 96 97 97 95

GFSFLT2_prec_cthk_033.txt.gz
RH
23 24 26 26 29 39 43 38 37 40 46 53 51 42 49 46 46 48 50 50 52 51 50 50 50 50 47
27 30 29 36 39 34 41 51 47 47 49 48 44 45 43 45 47 48 43 42 40 39 47 45 50 52 51
39 34 41 44 41 45 47 46 45 44 45 41 45 43 44 46 45 44 46 49 52 51 51 52 50 49 52
53 51 45 47 52 48 39 41 44 42 39 42 42 41 40 44 42 41 42 41 41 43 45 47 44 42 46
53 53 57 49 48 44 45 44 50 57 55 60 63 61 60 60 59 57 54 53 52 52 48 48 46 44 46
60 58 50 51 49 49 55 61 66 77 80 75 84 78 81 82 77 73 75 76 75 67 62 58 51 51 47
60 56 54 50 59 69 80 86 88 86 94 84 90 85 82 87 86 82 82 83 85 85 85 65 58 56 48
58 56 63 83 93 94 92 91 90 88 86 79 86 82 80 81 83 85 85 91 93 98 96 87 73 54 43
61 88 97 97 98 94 92 93 90 90 88 90 90 90 89 88 89 86 91 96 97 95 92 88 82 63 42
93 93 95 97 98 97 96 95 95 91 90 96 95 95 92 91 88 87 89 86 86 84 85 78 72 57 42
95 96 96 98 98 98 99 98 95 94 95 98 97 97 98 94 86 83 84 83 81 78 73 70 58 50 42
97 98 97 97 97 98 98 99 98 98 97 98 98 98 97 92 84 82 79 81 75 74 73 64 52 42 42
98 98 98 98 97 96 97 98 97 97 98 98 98 98 95 87 83 83 84 92 89 78 62 55 48 42 43
98 98 98 97 97 98 97 96 96 95 97 98 98 95 92 86 87 84 82 90 97 81 71 55 44 39 40
97 97 97 97 98 98 98 97 98 97 95 96 93 88 87 86 86 86 93 92 94 96 74 64 54 46 41
97 91 86 84 83 89 93 97 97 97 93 94 87 84 83 87 86 94 98 91 92 81 88 72 62 59 57
80 72 68 64 64 70 78 86 90 97 88 96 97 88 85 87 83 90 99 98 98 86 88 89 87 75 66

GFSFLT2_prec_cthk_036.txt.gz
RH
22 26 27 27 36 46 47 41 38 38 43 43 45 45 44 45 50 52 48 48 49 49 50 51 50 54 55
26 26 28 32 37 37 48 50 49 37 39 45 46 46 45 46 46 47 48 48 51 48 51 51 52 51 51
34 31 35 42 37 44 45 42 42 41 42 44 44 46 47 48 47 46 47 48 53 53 51 49 52 54 53
44 43 41 44 54 52 40 42 43 41 44 50 52 59 61 63 61 59 56 53 48 44 42 40 39 45 49
44 55 58 51 48 44 47 52 61 76 78 76 79 78 76 73 68 65 64 63 63 55 55 51 44 42 44
60 55 49 46 49 68 83 86 82 84 85 81 86 79 77 79 80 82 78 74 74 73 68 68 71 62 57
54 50 53 78 90 90 91 90 88 87 89 80 82 79 81 82 85 83 81 79 83 88 84 78 78 79 71
56 78 94 95 96 94 91 92 92 91 91 86 89 88 88 90 87 88 89 89 92 92 90 90 90 89 92
93 97 97 98 97 93 93 94 89 89 91 94 89 90 91 91 90 92 92 90 88 88 92 97 98 98 98
90 91 94 95 98 99 96 94 92 85 90 94 94 97 90 93 94 95 88 81 82 85 87 88 87 90 92
89 92 94 96 97 98 99 96 92 91 94 96 96 97 98 93 88 80 78 82 80 81 86 85 86 86 83
93 95 95 96 97 98 98 98 97 97 97 99 96 96 86 82 78 79 93 96 90 86 77 81 80 74 71
95 96 96 92 92 93 95 97 97 97 97 96 96 92 84 86 80 88 94 92 92 84 76 71 72 65 54
96 93 86 81 78 79 82 88 94 94 95 90 89 85 85 89 88 92 98 94 84 87 72 59 56 50 46
86 75 70 68 63 64 70 80 92 96 94 95 85 83 93 97 97 96 92 90 82 85 69 54 47 51 54
72 73 67 67 64 63 66 72 85 96 95 97 87 83 91 95 96 97 87 83 76 77 61 56 53 53 50
79 74 69 67 66 65 66 69 74 95 95 97 96 86 85 95 96 90 96 98 98 90 65 58 57 60 59

GFSFLT2_prec_cthk_039.txt.gz
RH
19 19 22 27 32 38 43 44 40 38 42 45 45 45 45 46 47 45 45 49 48 53 54 53 55 60 52
25 21 25 28 32 42 48 51 50 38 40 45 49 50 49 48 49 49 47 46 46 47 47 47 49 50 49
32 34 35 44 44 47 48 44 41 40 47 52 55 56 56 54 52 51 48 49 53 55 55 55 55 55 55
43 45 49 49 49 44 39 45 62 78 82 79 82 81 79 78 76 73 69 65 64 63 63 61 58 53 53
52 50 48 44 43 63 80 82 83 86 83 81 84 83 83 80 76 75 77 78 76 71 68 67 64 62 55
52 48 44 67 85 89 90 89 83 93 91 84 90 86 86 85 82 83 85 84 82 83 80 73 72 70 60
48 57 84 91 92 89 90 92 92 92 89 83 88 85 88 88 91 92 93 90 88 86 77 77 80 81 77
78 90 93 94 96 94 91 91 91 91 90 84 88 87 89 90 90 90 88 92 92 91 91 87 83 85 88
93 94 93 96 96 92 92 92 87 88 89 93 89 88 91 84 88 91 95 95 94 92 85 84 87 89 88
88 89 92 94 96 98 96 92 91 82 90 92 89 86 80 81 79 81 78 77 80 81 77 77 84 87 83
87 88 92 93 90 87 87 89 89 88 93 95 84 86 84 76 79 83 90 94 95 95 91 87 86 83 80
89 90 87 82 80 78 74 76 88 93 94 95 84 81 82 86 87 90 97 97 98 92 92 86 83 80 84
91 83 72 66 61 61 60 65 76 90 96 93 83 91 93 96 97 95 94 95 97 91 82 80 76 78 81
78 71 72 63 62 61 59 61 63 87 93 91 83 93 96 98 96 93 88 89 86 73 68 64 66 69 69
73 75 69 65 62 62 63 63 64 90 92 93 84 93 95 97 94 93 92 83 77 71 63 51 52 52 47
79 78 70 68 66 65 65 63 64 84 95 97 84 90 91 93 96 97 97 80 77 75 60 53 54 53 52
81 80 77 72 69 67 66 64 63 74 96 98 89 93 93 94 96 98 91 79 80 76 78 70 61 53 42

GFSFLT2_prec_cthk_042.txt.gz
RH
16 14 17 22 26 36 38 37 35 35 43 48 47 48 48 47 47 47 47 49 56 55 54 54 53 53 58
20 19 24 27 34 39 39 38 34 42 58 63 68 69 69 68 67 63 57 52 50 50 51 55 56 55 54
31 35 34 40 40 39 36 55 73 75 76 79 84 84 83 84 82 80 78 76 72 66 58 52 55 55 55
44 47 44 37 39 55 71 78 81 82 82 87 88 89 87 85 82 83 81 79 76 77 75 70 64 60 63
49 44 40 50 72 78 82 80 84 87 80 88 85 83 82 82 85 86 84 83 84 77 75 76 77 73 69
45 51 67 76 79 85 86 86 79 88 83 82 83 81 85 85 83 85 89 91 90 90 91 87 84 82 81
62 78 80 83 84 83 86 88 89 88 82 79 83 85 84 81 80 82 84 90 90 90 89 93 88 86 82
82 85 86 87 88 87 84 84 81 77 82 81 84 80 79 80 79 76 76 80 90 94 94 94 93 91 90
87 89 87 88 91 87 82 78 73 68 72 82 84 69 75 72 74 76 80 85 83 81 77 79 79 78 78
81 84 87 87 85 81 75 66 63 59 71 83 76 73 72 83 87 91 91 92 92 93 91 91 93 92 84
82 83 83 76 69 65 66 67 61 63 79 89 75 82 89 79 85 89 94 95 94 95 97 95 90 90 89
83 81 68 65 62 60 62 65 69 67 77 95 80 84 88 87 87 89 96 92 90 89 81 77 80 78 87
74 67 69 67 62 62 62 63 65 67 81 96 85 88 92 92 94 96 92 79 74 71 63 62 67 73 77
69 72 74 72 66 65 61 58 56 58 82 96 88 88 93 97 97 96 87 71 66 68 62 54 61 67 75
76 77 80 77 72 66 66 62 59 57 79 93 89 88 91 93 95 92 75 77 78 77 69 51 54 53 62
82 85 82 76 73 72 71 67 63 60 76 95 91 85 88 91 94 87 79 80 80 78 76 66 57 49 41
87 88 85 77 75 76 77 76 70 64 73 96 95 92 92 94 95 88 78 83 80 74 75 63 57 54 52

GFSFLT2_prec_cthk_045.txt.gz
RH
17 15 20 26 28 35 37 35 31 34 46 57 62 66 69 71 73 74 74 68 58 55 56 56 56 55 54
17 18 25 27 35 33 30 38 54 62 67 71 72 75 75 76 77 78 79 80 78 77 74 67 60 54 55
26 28 31 35 33 40 58 62 67 72 72 73 78 77 80 79 78 77 78 79 82 83 82 79 77 76 65
41 40 37 36 54 63 65 69 73 75 73 77 79 77 77 76 77 77 77 77 82 86 85 84 84 81 78
45 38 43 63 68 71 72 73 75 77 70 74 70 69 71 73 72 71 74 74 77 80 85 87 87 86 82
41 53 68 72 74 76 77 75 69 76 69 69 65 64 70 74 68 68 66 69 69 72 81 89 91 89 87
57 73 75 78 80 78 78 76 72 67 65 63 59 64 76 67 65 70 75 76 76 77 73 82 90 90 89
78 78 80 83 83 80 75 69 57 53 65 52 56 71 73 68 75 77 83 87 88 87 86 85 81 83 90
79 81 82 82 83 77 69 62 50 49 54 53 60 74 67 72 78 79 87 87 88 86 86 92 94 91 87
80 82 83 81 78 73 69 61 58 49 55 55 68 78 64 74 79 82 90 96 97 86 84 81 82 85 88
81 78 74 69 67 71 68 67 62 61 59 61 74 82 78 72 77 85 85 80 79 72 75 76 74 76 75
69 67 65 68 71 74 70 68 69 64 59 66 81 90 80 80 83 80 83 78 70 66 62 61 62 65 68
68 69 72 72 73 71 70 66 65 65 62 68 85 92 86 89 87 83 82 77 76 69 72 68 55 60 68
74 76 76 77 75 69 68 66 63 60 62 68 87 93 89 96 88 88 86 83 74 76 70 68 59 58 67
83 83 84 82 79 71 72 72 70 66 58 68 91 93 93 93 90 88 88 87 74 75 69 67 60 56 64
83 86 88 87 84 74 73 72 71 70 66 67 93 89 88 89 94 82 92 90 77 79 82 70 57 56 56
82 83 88 92 88 78 76 75 74 71 72 71 96 95 93 91 93 91 85 92 84 83 89 72 69 56 51

GFSFLT2_prec_cthk_048.txt.gz
RH
20 23 27 29 33 36 32 32 33 41 51 58 62 66 66 67 68 68 69 70 70 72 74 74 77 74 65
21 25 26 30 33 37 33 41 54 61 63 67 68 67 71 71 72 72 71 70 70 74 74 75 77 83 80
26 26 28 33 36 33 49 63 66 68 69 69 67 68 68 66 65 68 69 70 70 72 74 75 78 81 83
33 31 37 32 36 55 62 69 70 73 69 68 66 65 64 58 58 62 66 63 63 66 67 69 71 74 80
42 41 33 42 59 65 68 71 75 73 66 65 62 57 56 56 58 67 66 58 64 69 69 66 65 66 74
40 40 53 67 69 71 73 72 68 70 66 50 55 47 51 55 62 73 61 67 70 74 78 78 75 75 74
45 64 72 74 74 74 76 73 69 61 62 42 48 44 45 53 67 72 67 71 74 82 86 85 86 88 83
72 76 77 79 81 78 73 63 56 54 59 49 46 43 49 64 71 70 70 78 84 84 81 80 79 82 85
78 79 79 78 77 70 64 62 57 53 54 54 51 45 54 68 74 72 79 83 76 73 75 76 72 72 75
73 72 72 72 71 70 70 69 67 55 56 54 51 55 53 75 77 73 79 83 75 74 74 75 77 68 61
66 67 67 69 73 76 77 77 71 65 61 60 52 55 70 78 74 75 83 75 76 74 76 76 79 78 66
66 68 73 76 77 79 79 78 74 68 64 67 58 61 73 85 75 78 82 78 77 72 73 73 72 72 63
69 74 78 80 80 79 83 78 73 73 71 70 65 67 87 86 85 82 77 80 78 75 80 69 64 65 56
73 74 76 80 83 85 85 77 70 71 73 74 69 73 92 91 91 84 84 89 78 83 88 75 72 64 57
78 78 80 80 85 88 89 81 74 70 69 73 72 79 95 93 88 90 87 94 84 87 84 70 72 61 56
85 86 87 87 89 90 90 85 77 73 71 70 69 81 90 88 92 93 91 94 88 83 80 70 66 61 53
86 87 88 91 90 90 88 85 80 74 72 72 72 92 93 92 88 95 88 94 92 85 80 76 75 69 61

GFSFLT2_prec_cthk_051.txt.gz
RH
24 24 22 26 27 28 30 26 27 30 39 47 56 59 63 63 63 65 65 65 67 67 66 67 69 69 71
25 25 28 28 32 36 34 30 35 43 56 62 65 65 65 64 65 65 64 63 60 64 67 67 68 69 70
26 27 28 34 38 35 33 43 51 58 64 65 66 67 62 64 62 62 61 59 59 61 64 57 56 57 58
27 27 36 36 35 42 52 61 62 66 66 66 64 62 60 56 54 52 52 56 60 65 63 60 63 62 60
34 39 32 35 50 61 65 66 67 71 65 63 60 52 49 51 50 51 49 52 59 71 67 67 68 70 71
41 37 45 61 65 69 68 69 65 71 67 54 53 45 46 44 49 53 53 56 63 71 67 68 71 75 74
43 58 65 64 63 61 62 62 57 53 58 48 48 43 44 40 49 55 57 61 70 70 68 72 66 66 69
65 66 60 63 65 64 60 54 52 57 64 58 53 45 43 42 50 57 62 69 75 73 75 71 71 70 71
60 59 65 66 66 64 60 61 56 59 67 63 56 49 43 39 55 62 67 75 78 77 77 74 73 70 68
56 59 61 62 66 71 72 69 67 61 71 63 60 61 45 41 62 70 73 82 80 79 80 77 71 73 69
57 58 61 66 72 75 78 79 76 73 75 69 65 67 66 48 62 74 82 85 83 82 80 76 80 84 78
59 63 67 69 72 74 76 79 85 81 75 71 68 69 67 58 70 80 84 90 86 84 77 77 86 83 82
67 72 76 77 77 76 78 80 85 86 80 73 73 72 72 68 85 86 86 90 85 90 83 85 86 72 67
71 75 79 81 82 83 83 84 84 84 85 76 76 75 72 77 94 89 91 86 85 93 85 84 77 72 71
75 76 79 81 85 86 87 86 86 82 77 74 76 75 75 89 92 91 91 89 89 92 90 86 80 76 75
81 82 82 84 86 89 89 87 84 80 78 74 72 71 72 89 91 88 90 91 91 92 91 85 85 81 83
87 89 91 91 91 90 90 88 85 82 77 74 74 73 74 88 85 88 90 89 88 86 86 87 88 84 85

GFSFLT2_prec_cthk_054.txt.gz
RH
24 24 22 20 19 22 23 26 24 27 36 41 44 48 54 58 60 61 61 61 63 64 64 65 67 68 68
24 22 22 21 23 26 26 25 31 39 46 54 58 58 61 62 62 61 60 61 61 61 63 64 61 59 62
23 22 23 24 28 29 29 38 48 51 56 58 59 60 59 61 61 58 57 56 56 55 54 56 58 59 63
26 28 30 30 34 39 45 53 55 58 58 59 59 55 58 56 52 50 50 50 52 52 50 52 59 67 63
29 30 31 36 49 55 55 51 50 51 49 46 47 46 48 48 43 43 46 49 51 53 54 56 61 67 68
30 31 37 53 59 55 51 52 46 51 47 40 46 43 48 47 43 47 46 48 51 52 57 62 64 64 67
32 40 54 55 53 55 55 54 51 53 56 50 48 48 52 49 46 44 47 49 54 57 62 67 70 68 71
43 54 53 55 59 58 57 57 55 60 67 57 55 51 51 49 49 46 49 55 60 63 66 72 71 72 72
52 53 56 57 58 59 59 61 56 60 69 64 62 56 51 51 53 50 57 60 64 69 75 77 77 77 72
51 51 52 56 61 66 68 67 67 61 72 66 66 68 50 56 61 57 60 68 71 77 82 83 81 80 76
51 54 57 62 66 71 76 77 75 74 78 77 72 73 68 56 59 57 65 71 77 86 90 88 88 85 76
55 58 61 65 69 71 75 77 83 81 81 84 77 78 69 63 58 58 72 81 90 89 91 91 89 87 83
61 66 70 71 73 73 76 78 82 85 85 83 83 79 73 68 64 64 81 86 90 89 88 88 93 87 81
68 72 76 79 83 84 80 81 80 82 88 84 82 78 73 71 70 77 90 90 86 88 86 88 91 90 89
76 80 85 88 91 92 90 87 86 82 79 80 82 77 73 72 71 87 87 85 86 86 85 83 87 88 88
85 91 92 92 90 92 94 92 90 87 82 77 74 67 67 71 85 89 84 81 83 85 81 80 79 86 86
93 94 93 93 93 93 93 92 90 88 82 77 75 70 64 65 82 89 81 82 83 83 83 82 76 76 84

GFSFLT2_prec_cthk_057.txt.gz
RH
26 23 21 19 17 16 17 19 16 20 28 33 41 44 48 52 55 57 58 58 60 61 61 64 67 67 68
24 21 19 17 18 19 20 21 25 31 39 44 49 52 54 59 58 58 58 59 59 59 59 60 61 63 66
23 21 20 19 21 20 23 27 35 41 45 47 48 48 48 49 51 54 54 53 52 55 56 55 56 56 56
27 25 25 24 24 25 32 38 39 41 42 41 43 40 41 41 42 42 44 45 44 46 50 50 51 53 52
31 30 30 27 27 39 40 38 37 39 40 41 41 42 43 44 44 45 45 45 43 42 46 47 49 52 54
32 31 29 28 42 44 43 44 40 44 45 44 48 45 48 49 49 50 48 48 45 44 45 47 48 53 56
30 28 32 43 46 47 49 49 47 47 48 45 49 48 52 54 56 52 49 48 47 48 49 52 53 55 59
28 37 47 51 53 53 52 51 52 54 58 51 55 53 54 58 62 57 54 53 55 55 54 56 60 62 64
41 49 52 54 56 57 57 58 55 58 63 59 58 57 58 62 70 64 60 59 60 60 59 64 68 72 71
48 51 52 56 60 65 67 66 66 62 72 66 63 69 58 66 74 71 64 63 62 62 65 69 75 78 79
51 52 55 61 66 70 75 78 78 78 82 80 71 73 76 65 69 71 66 63 61 63 68 76 85 89 85
54 57 60 66 72 77 84 89 93 91 85 88 79 80 76 71 66 65 64 62 62 65 78 84 87 86 85
60 64 69 74 82 87 92 94 93 93 92 88 85 82 79 74 66 63 60 60 65 76 79 81 82 83 82
67 73 80 88 93 94 90 90 85 85 91 90 87 83 77 75 69 63 63 63 75 79 80 80 81 80 79
78 86 90 91 90 91 91 87 86 82 80 87 86 81 77 74 66 63 63 74 79 79 81 79 81 78 76
89 90 85 86 89 94 96 91 84 83 81 78 78 72 70 67 70 69 73 79 77 80 82 79 76 80 77
83 84 89 93 95 95 95 93 85 85 83 78 74 70 66 58 65 85 84 80 81 82 84 82 78 78 77

GFSFLT2_prec_cthk_060.txt.gz
RH
27 27 27 25 22 19 16 15 15 14 19 25 29 35 40 43 45 48 50 52 54 54 54 55 58 63 64
30 29 29 25 23 19 17 14 15 18 24 33 37 38 39 40 42 45 46 46 47 49 54 55 55 57 59
31 30 28 24 21 18 16 15 20 28 33 34 34 38 40 40 40 39 39 38 38 38 40 46 50 54 54
31 31 29 23 21 20 17 21 29 35 34 34 37 38 39 39 38 39 39 43 43 42 41 46 44 43 48
35 31 27 23 20 20 25 32 34 37 36 37 39 38 39 39 40 41 41 46 46 46 44 44 47 45 45
33 31 26 23 22 32 38 39 37 42 42 41 43 40 41 43 43 44 46 49 49 49 50 48 46 48 48
32 28 24 26 39 43 45 47 46 45 47 44 48 44 47 49 52 53 52 50 53 54 55 53 51 49 48
25 24 34 44 49 50 51 51 50 53 58 49 53 51 53 55 61 63 61 59 60 60 59 58 56 55 53
26 40 48 51 54 56 56 57 55 57 68 62 61 61 60 57 65 73 67 65 64 62 61 63 64 62 58
40 48 52 56 59 63 66 67 69 64 79 77 75 79 62 58 65 77 72 71 66 64 64 65 65 64 60
45 52 57 60 65 72 80 85 86 88 94 94 80 79 79 65 62 76 71 68 66 63 64 66 65 64 67
54 57 61 67 76 86 94 97 97 93 89 93 80 80 77 72 71 71 72 67 64 61 63 65 64 73 81
61 65 71 78 83 82 86 91 92 95 96 95 87 83 82 81 74 69 66 61 63 61 62 61 70 78 78
68 75 76 74 78 82 82 88 91 90 93 94 87 85 81 82 76 66 64 61 61 62 60 69 76 78 80
76 71 72 72 72 75 80 86 92 90 86 85 85 83 81 77 69 66 62 62 62 64 74 78 80 80 77
71 74 70 69 69 72 78 82 82 81 77 76 74 71 69 68 76 68 69 70 76 81 82 79 77 81 78
77 77 72 71 73 74 76 76 75 73 71 71 70 70 68 66 70 85 83 81 83 86 85 83 78 81 82

GFSFLT2_prec_cthk_063.txt.gz
RH
36 32 30 27 26 25 23 21 18 16 15 19 22 23 28 31 34 36 37 38 39 40 40 42 44 47 49
33 30 29 28 27 24 22 19 16 13 14 19 25 28 31 32 34 38 39 39 40 40 40 40 41 41 43
31 31 30 29 26 24 21 18 16 16 20 24 28 29 32 34 36 38 35 36 36 36 36 37 41 43 42
31 31 30 27 25 23 22 18 20 24 27 31 32 32 34 35 36 35 35 34 38 38 38 39 40 45 45
32 30 28 27 26 22 21 24 27 32 31 32 37 38 39 40 40 39 39 39 43 44 45 44 44 49 50
30 29 27 24 21 22 29 33 32 36 39 39 44 42 45 45 46 47 47 50 51 50 51 50 50 51 54
27 24 22 21 28 34 40 41 43 45 49 43 49 46 51 49 53 55 57 59 60 60 58 57 56 56 59
20 18 23 33 42 44 46 47 49 52 60 49 55 53 55 57 64 70 75 76 70 68 64 61 60 62 62
18 25 36 42 46 49 53 56 55 59 71 73 67 67 68 66 71 80 83 83 78 70 64 63 64 67 64
28 37 43 49 57 64 67 70 74 66 75 78 73 79 66 61 64 75 78 83 82 74 68 66 67 68 65
37 44 52 59 66 70 72 73 71 71 78 86 76 83 85 69 63 69 75 78 75 72 69 63 63 64 65
47 54 59 64 64 66 64 66 70 75 78 92 87 89 85 75 66 68 77 76 73 68 63 60 60 61 64
56 63 62 61 64 58 59 62 64 72 78 84 86 85 82 77 72 72 69 66 68 64 62 59 59 60 60
64 63 64 66 64 63 63 65 63 62 71 75 76 76 75 76 73 65 63 64 65 65 63 60 61 66 70
65 64 69 70 71 75 77 77 77 71 65 68 72 73 74 74 71 71 69 70 70 68 70 71 76 79 78
65 70 72 74 75 78 84 87 88 88 88 88 86 81 79 81 83 80 81 81 79 80 83 83 82 82 77
70 74 76 77 78 81 87 91 92 94 94 96 94 95 92 90 89 90 83 85 89 88 85 88 86 84 83

GFSFLT2_prec_cthk_066.txt.gz
RH
61 54 43 37 32 27 26 27 24 21 18 16 23 22 24 27 27 30 32 33 36 37 37 37 36 37 37
47 39 37 30 27 28 27 25 21 17 15 17 22 21 24 26 28 31 36 38 37 38 38 36 35 37 39
39 34 29 31 30 27 24 19 16 15 16 20 22 23 26 32 34 35 35 35 36 38 39 37 37 38 40
31 32 35 30 26 24 21 17 18 19 21 25 27 29 30 33 34 36 36 37 37 41 40 39 39 38 39
35 33 29 27 25 22 19 21 24 26 25 28 31 33 37 40 42 43 43 43 43 46 46 47 49 46 45
31 27 24 22 21 21 27 31 30 33 33 34 43 43 47 49 52 54 53 52 54 52 52 51 50 50 50
26 22 21 20 26 32 34 36 39 43 48 41 53 51 57 63 68 71 72 70 69 66 64 63 62 64 62
18 18 22 31 36 38 39 41 47 50 54 41 43 42 45 49 60 73 83 86 84 83 80 78 76 72 67
18 24 33 36 40 43 48 49 46 44 47 48 44 43 45 50 62 73 83 86 84 79 75 72 68 66 63
25 34 38 43 50 54 51 53 51 48 53 53 49 54 46 56 69 76 79 82 80 75 69 67 68 68 67
33 38 46 53 57 54 59 59 59 61 63 65 54 56 61 54 54 64 69 70 70 70 70 69 69 68 67
41 48 55 58 54 62 63 66 69 70 72 76 70 66 61 57 56 57 62 64 65 65 66 65 64 64 64
52 59 60 55 62 65 66 68 72 78 81 82 82 84 82 76 66 63 61 63 67 63 64 64 62 61 60
63 63 57 63 66 66 66 69 74 80 87 89 91 91 89 88 85 77 73 73 75 75 72 68 67 66 66
65 60 63 67 68 67 69 74 80 83 85 90 93 94 94 92 85 84 82 84 84 84 87 81 79 80 80
66 64 68 70 68 69 73 78 81 87 87 89 89 87 87 88 90 86 83 83 89 92 91 88 83 85 85
67 68 71 72 72 72 74 79 86 89 92 93 91 90 86 85 89 93 87 91 93 92 93 94 91 86 88

GFSFLT2_prec_cthk_069.txt.gz
RH
80 74 69 60 51 44 37 33 29 27 24 22 20 23 23 23 23 25 28 30 31 33 35 36 38 42 41
71 64 54 47 42 37 31 29 27 22 19 17 17 17 19 24 26 27 30 33 35 35 36 36 37 38 38
60 52 46 38 34 31 29 23 19 16 16 18 19 21 22 23 30 31 32 33 34 35 36 37 38 39 42
49 44 36 33 33 29 27 19 18 18 20 22 24 26 28 30 32 34 35 36 37 41 42 43 42 43 42
38 35 34 35 31 24 22 24 23 22 24 28 31 35 38 39 39 38 40 43 47 52 53 54 55 53 52
37 35 33 24 21 23 26 30 29 29 31 35 35 33 33 33 35 36 37 39 46 55 64 72 66 61 58
32 24 21 19 23 27 30 33 35 36 35 36 37 33 36 34 36 36 37 41 47 58 68 74 84 80 70
20 19 20 25 32 34 36 38 41 40 43 41 38 40 41 38 36 39 43 47 54 66 72 79 79 79 84
19 19 25 29 34 37 43 45 41 46 49 49 49 49 49 44 41 42 44 49 55 60 67 72 73 72 70
19 27 31 37 43 48 48 46 51 52 54 57 57 60 57 62 57 51 47 49 51 55 59 62 63 65 64
28 33 40 48 54 54 52 56 60 60 62 65 66 71 75 69 72 70 61 55 51 53 56 58 60 62 64
37 45 53 58 56 55 62 65 64 64 68 74 75 79 81 78 74 74 74 71 64 62 66 64 62 61 61
49 56 60 57 55 63 66 64 64 68 72 77 81 85 87 83 79 74 71 75 74 80 81 81 78 73 64
58 60 58 56 64 66 64 64 63 68 77 83 86 89 89 86 82 75 79 80 80 83 85 87 89 85 80
60 60 59 63 67 68 68 67 68 70 78 85 88 91 91 89 81 84 81 83 88 90 90 88 90 88 84
62 63 65 68 69 69 69 70 72 78 82 85 86 86 87 87 89 84 84 84 86 89 90 89 89 94 90
63 64 67 69 69 69 68 71 76 80 83 88 91 90 85 82 90 95 88 86 86 87 91 91 90 92 94

GFSFLT2_prec_cthk_072.txt.gz
RH
98 98 95 82 75 67 62 58 48 43 37 31 28 27 28 26 25 25 24 25 27 29 29 32 32 33 34
94 87 77 71 66 63 54 46 37 32 31 28 26 23 20 19 20 24 25 25 27 29 31 32 34 35 35
77 71 62 57 52 49 41 37 35 29 26 24 21 21 21 21 22 23 25 27 28 30 30 31 36 39 42
65 64 60 53 47 44 41 35 32 24 23 23 22 23 25 25 25 24 23 23 24 26 31 33 34 35 40
61 52 46 43 39 35 31 27 25 26 27 28 30 30 28 27 26 24 23 26 27 31 33 34 37 41 45
48 44 39 35 30 27 26 28 28 27 33 32 35 33 32 32 30 30 31 30 31 35 35 35 40 45 52
39 34 29 26 24 24 28 30 31 35 38 35 35 37 40 42 43 41 39 37 38 37 38 39 43 51 57
24 21 21 22 26 29 30 33 37 41 41 39 41 45 48 51 51 52 52 51 50 46 44 43 44 51 58
16 15 16 22 27 31 37 43 42 40 42 46 49 50 51 57 61 63 65 64 61 57 50 49 48 48 54
15 20 25 29 35 42 46 47 45 46 52 53 52 56 56 66 70 70 70 70 69 67 61 57 57 59 50
23 28 35 42 47 51 50 47 53 56 56 57 57 62 68 69 71 73 72 71 71 67 66 62 65 69 65
34 41 46 51 51 49 50 57 59 58 57 61 61 67 73 75 75 74 74 73 71 72 72 74 75 76 77
45 48 50 50 49 52 57 60 60 61 61 62 67 74 81 82 79 75 73 75 76 77 82 87 91 92 89
48 51 52 53 56 59 60 60 59 60 64 68 73 80 84 87 84 77 78 80 77 82 86 88 90 90 91
50 51 53 55 59 62 62 63 62 61 66 71 75 84 88 89 84 83 82 83 82 83 84 85 88 87 91
51 52 54 58 62 65 66 67 66 68 67 67 73 83 89 91 92 85 86 87 87 87 86 84 82 88 88
53 54 57 60 62 64 65 65 66 67 69 69 71 83 87 87 92 95 88 88 88 86 87 88 86 84 88

GFSFLT2_prec_cthk_075.txt.gz
RH
95 95 92 93 95 89 81 74 70 68 64 57 49 39 36 38 39 37 34 32 30 30 32 31 33 34 33
86 87 88 84 81 75 67 60 59 53 45 39 34 33 31 28 29 28 29 28 27 28 28 29 30 30 33
79 75 76 72 69 68 66 55 43 37 35 32 29 26 24 24 24 23 23 23 24 25 25 25 24 24 27
74 76 73 70 63 52 46 43 36 29 28 27 25 26 26 25 23 23 21 21 21 22 25 26 28 30 31
71 71 61 51 51 44 37 33 24 23 25 24 26 24 23 23 23 24 25 28 30 31 32 33 34 35 37
58 50 46 40 34 29 26 21 25 22 25 22 26 25 25 27 29 30 31 33 36 40 41 43 43 43 45
38 35 29 26 24 19 20 25 25 27 31 30 30 30 32 33 35 38 40 41 42 45 49 55 54 50 49
24 19 16 16 18 21 25 27 31 36 40 37 35 36 37 41 43 45 48 50 53 56 58 60 59 57 55
14 13 13 17 22 26 32 39 42 40 40 40 42 44 44 44 48 53 56 59 61 62 62 62 61 59 56
15 17 21 26 33 39 43 45 44 41 47 51 51 50 47 51 55 60 63 65 67 66 65 66 64 62 60
18 26 33 38 42 45 45 44 48 52 55 56 54 55 57 54 62 66 68 69 68 67 65 66 67 69 69
31 36 39 41 44 46 48 52 55 56 57 59 57 60 63 64 65 69 73 73 70 69 70 72 75 79 82
37 39 41 43 45 48 51 54 56 57 58 58 60 65 67 69 72 77 76 75 74 75 75 75 79 79 79
40 42 43 44 47 50 53 56 57 57 59 60 64 66 66 71 80 80 81 80 78 79 77 77 80 80 80
42 44 45 47 49 53 55 56 56 55 55 57 60 64 64 68 78 83 82 83 83 81 83 80 82 84 81
43 44 46 47 49 52 54 55 55 57 57 53 52 54 59 67 84 86 85 84 86 89 90 85 82 86 87
47 47 47 49 52 53 54 53 52 54 57 56 50 52 56 66 79 94 89 88 88 89 91 90 87 83 87

GFSFLT2_prec_cthk_078.txt.gz
RH
98 98 94 89 90 88 86 81 75 72 70 65 59 55 51 50 47 45 45 45 42 40 38 38 38 38 37
88 86 80 81 78 75 73 65 67 67 64 58 50 45 42 41 40 38 36 34 33 31 29 29 29 29 30
79 78 77 71 69 70 68 67 57 46 43 43 39 35 31 30 28 26 27 28 28 27 26 25 24 24 24
72 72 73 69 65 59 53 49 42 37 32 28 26 23 23 23 22 21 20 22 26 27 27 27 28 29 29
76 70 67 58 55 46 38 31 24 22 24 20 20 20 20 21 23 24 25 30 31 32 33 34 35 37 38
53 47 43 40 32 25 20 16 15 18 19 17 23 23 26 27 27 28 30 33 36 39 40 42 44 46 49
33 28 22 19 15 12 12 15 19 23 26 26 28 28 29 30 31 32 34 38 40 42 47 49 53 56 58
18 14 12 10 10 13 19 23 29 32 33 29 30 31 34 37 38 40 42 43 46 51 55 59 61 62 61
10 10 10 13 20 27 30 34 34 33 34 34 36 39 42 43 43 43 46 49 52 56 60 62 65 65 64
9 12 18 25 30 33 36 37 40 40 43 44 45 47 47 45 46 48 52 57 61 62 64 65 67 65 63
15 24 28 31 34 36 38 41 43 46 50 52 52 53 54 50 49 53 58 64 67 70 69 68 68 68 67
27 29 32 34 36 37 39 44 48 51 53 56 55 55 54 55 54 52 56 67 72 72 71 72 72 69 69
30 32 34 37 37 39 41 44 47 50 53 54 56 55 54 52 52 52 54 66 74 73 73 74 72 71 69
33 35 37 39 40 41 42 45 47 48 51 57 57 56 51 47 50 50 55 70 74 74 74 75 76 77 75
37 39 41 42 43 44 45 46 48 47 47 49 55 54 52 48 42 49 60 69 77 78 79 78 80 81 78
40 42 45 48 49 51 52 52 53 51 47 46 48 50 51 46 41 41 58 69 81 85 86 81 79 83 82
43 46 50 53 55 57 58 58 57 57 54 47 48 53 52 49 42 46 56 68 84 87 86 84 82 81 80

GFSFLT2_prec_cthk_081.txt.gz
RH
96 97 98 92 89 88 83 84 85 82 79 74 67 61 59 64 61 60 56 55 51 49 48 46 44 43 43
97 99 92 93 91 87 83 81 78 73 71 68 59 50 47 47 48 48 49 47 45 42 40 39 37 34 32
97 96 92 90 84 80 81 75 64 55 48 43 37 33 32 33 36 37 35 34 34 32 31 30 28 27 26
91 84 85 85 73 62 53 44 36 31 25 21 21 20 21 23 23 23 23 23 22 25 27 27 27 28 28
86 76 65 54 43 37 30 24 18 16 16 18 19 20 22 23 23 24 24 26 29 29 29 30 32 32 33
52 42 33 29 26 22 15 10 10 17 16 22 23 26 26 26 26 26 26 26 30 32 34 35 37 39 40
29 24 20 16 13 10 9 15 22 25 25 25 26 27 27 28 28 29 30 31 33 38 42 42 44 46 47
18 15 11 10 10 13 21 24 27 28 27 26 29 29 31 33 35 38 40 40 41 41 42 44 49 53 56
13 11 11 13 22 25 26 27 27 28 31 32 34 34 37 38 40 42 43 43 43 45 48 52 54 58 61
11 12 17 23 26 28 28 29 30 31 33 37 40 42 45 45 45 45 45 46 47 51 56 59 62 64 63
15 22 26 27 29 30 31 31 33 35 37 39 43 47 48 46 38 41 45 46 46 49 57 67 70 68 66
26 28 28 29 31 31 32 33 36 37 38 40 42 47 49 48 45 35 37 42 45 48 59 70 73 72 72
29 29 30 32 33 34 34 35 38 40 41 39 42 45 47 47 44 40 32 32 43 46 62 72 73 73 71
31 31 33 35 36 37 37 40 43 45 46 44 42 42 42 44 46 43 40 37 35 48 62 75 78 77 76
36 35 36 38 39 40 43 46 48 49 51 52 51 46 44 45 45 46 42 35 39 49 61 78 83 82 79
40 39 40 43 44 47 50 53 54 54 54 54 54 48 44 45 48 44 43 39 36 44 61 78 82 83 79
44 45 48 49 50 52 54 56 56 56 58 58 57 51 48 46 46 46 43 40 39 42 57 76 84 83 81

GFSFLT2_prec_cthk_084.txt.gz
RH
79 85 85 96 94 97 97 96 94 92 89 83 77 73 74 76 75 70 65 63 59 56 55 54 53 54 54
81 84 91 94 97 96 96 91 85 84 82 80 73 61 49 45 44 48 50 51 50 48 48 47 47 47 47
87 92 95 96 94 91 88 85 71 58 47 34 28 24 20 19 20 21 24 23 23 24 26 32 33 34 33
86 86 90 91 86 72 53 37 30 25 17 13 11 11 12 13 14 15 17 17 18 19 23 25 26 27 27
84 77 62 48 36 29 24 19 12 9 9 11 13 16 18 20 22 22 23 23 24 25 27 29 29 29 30
32 25 23 21 18 16 13 9 9 13 15 21 22 22 22 23 24 24 25 25 26 28 30 33 34 35 37
19 18 17 15 13 11 10 11 18 23 23 22 22 23 24 26 26 28 31 33 34 36 39 41 41 43 44
16 16 13 12 11 12 16 22 24 26 25 23 26 26 28 29 30 34 37 39 41 40 40 40 41 44 47
15 15 13 13 17 22 24 25 27 28 28 27 27 27 28 30 35 40 42 43 43 43 42 40 41 45 49
16 14 14 18 25 26 27 28 29 30 29 30 30 31 30 32 35 39 40 41 39 40 39 40 42 47 52
16 16 22 27 28 28 29 30 32 31 32 33 33 35 36 34 36 40 41 38 34 36 38 40 43 49 56
20 27 28 31 30 30 31 32 34 34 35 38 38 38 36 35 33 34 37 38 33 28 34 39 44 47 60
29 32 32 34 35 34 33 35 37 38 41 43 44 45 46 42 38 35 36 38 38 35 31 33 39 50 62
33 35 37 38 38 38 38 40 41 43 45 48 49 49 49 50 45 39 41 42 39 36 33 30 38 49 69
36 38 40 42 44 44 45 47 48 49 53 55 54 54 53 53 46 43 43 43 40 37 37 32 34 47 69
41 42 45 46 48 51 51 52 52 54 56 56 57 56 54 52 47 44 45 45 44 44 45 43 35 42 59
45 47 48 50 52 56 58 55 55 58 62 60 62 61 56 51 47 49 47 47 45 44 45 45 46 44 52

GFSFLT2_prec_cthk_087.txt.gz
RH
58 59 63 67 74 79 80 83 86 90 92 90 87 85 80 77 74 68 65 63 60 58 57 58 56 56 56
61 65 67 72 77 82 85 86 87 85 80 79 72 48 32 25 21 19 23 28 28 30 32 35 37 40 44
64 69 75 76 79 81 83 82 81 71 41 26 21 14 10 8 9 10 13 17 15 15 16 16 17 22 26
70 73 73 71 73 70 55 33 22 19 15 11 8 8 11 12 14 15 17 18 19 20 20 22 25 27 27
62 57 48 32 21 18 17 15 13 10 8 8 10 13 17 19 20 19 19 20 20 21 24 27 29 29 29
18 16 16 16 16 15 14 11 9 9 10 15 18 20 21 21 19 19 20 22 23 25 27 34 35 37 38
15 15 14 14 14 13 12 10 10 16 20 21 20 22 23 22 21 21 22 24 28 31 33 35 36 38 40
15 15 15 15 14 14 13 14 20 23 22 21 24 25 24 22 21 23 26 28 30 34 36 36 35 37 38
17 17 17 16 15 15 20 24 25 25 24 24 27 26 24 23 25 28 31 32 32 36 37 36 34 35 35
18 17 16 17 17 24 27 27 29 27 27 28 30 30 27 27 28 30 32 35 35 35 35 35 32 32 34
17 17 17 20 26 28 29 30 32 33 34 33 33 37 37 35 34 34 32 32 34 36 34 33 34 33 32
18 19 23 28 29 31 33 34 35 37 38 40 41 43 43 42 41 45 42 37 36 38 37 38 37 35 33
23 27 30 32 33 35 37 38 40 42 43 44 46 48 49 48 44 46 44 42 41 41 40 39 36 33 31
29 33 34 36 37 40 42 44 45 48 51 53 54 53 52 53 51 50 51 45 43 44 42 40 38 37 35
33 36 37 38 41 45 46 47 50 54 58 61 59 56 54 56 55 56 51 46 45 45 44 41 41 42 40
36 37 40 42 45 48 51 54 55 59 61 61 61 59 58 60 61 60 55 50 50 48 47 43 40 40 38
38 41 43 46 50 52 55 58 61 61 59 57 60 60 60 60 65 69 59 58 56 53 50 47 44 40 40

GFSFLT2_prec_cthk_090.txt.gz
RH
49 50 51 54 59 62 64 69 71 75 77 80 83 81 74 63 53 40 27 20 21 27 28 31 33 38 43
50 52 55 60 64 67 67 69 70 71 72 65 58 49 28 17 13 11 9 9 10 13 13 14 16 20 21
55 58 62 63 62 61 60 55 52 49 43 30 17 14 11 9 7 8 9 11 14 16 17 17 17 18 24
60 61 60 54 45 43 42 35 23 16 14 12 10 9 8 9 11 14 16 17 17 16 16 16 20 24 26
45 40 36 32 25 18 15 14 13 12 10 10 9 10 13 17 17 18 18 19 18 18 20 22 27 30 31
20 16 15 14 14 14 14 13 12 11 11 13 16 19 20 19 18 21 22 21 20 20 22 24 27 30 35
15 15 15 15 16 15 14 13 13 13 15 20 21 21 20 20 21 23 24 23 22 24 24 26 27 29 33
16 16 17 16 16 15 14 14 15 19 22 22 22 22 22 21 22 25 27 26 25 26 27 28 28 30 32
18 18 17 17 16 15 15 18 23 24 25 25 25 24 25 25 25 29 30 29 27 27 28 29 28 29 29
19 18 18 18 17 17 21 26 26 27 27 29 30 30 30 31 33 37 38 36 33 29 30 32 32 30 30
20 20 20 20 20 24 27 28 29 30 33 34 34 37 38 38 38 41 43 44 41 35 34 35 36 35 33
23 23 24 24 27 29 30 31 32 34 37 39 39 41 43 44 44 47 46 46 45 42 40 42 42 40 36
26 26 28 30 32 32 33 34 36 39 42 44 45 48 50 51 47 45 44 49 50 48 45 44 43 42 38
30 30 32 34 35 36 36 36 40 44 47 50 52 54 53 50 48 47 50 50 53 51 48 46 44 42 41
33 34 35 36 39 40 39 41 44 48 53 56 56 56 53 52 49 51 51 54 54 53 52 50 50 46 44
35 35 37 39 42 42 43 46 49 51 55 58 60 60 57 55 52 50 54 56 55 56 57 54 53 52 47
36 36 39 42 43 44 46 49 51 53 57 62 63 61 58 55 51 55 55 61 59 59 63 61 59 57 52

GFSFLT2_prec_cthk_093.txt.gz
RH
47 48 48 49 51 54 60 64 63 61 61 63 62 62 59 54 48 34 19 12 9 8 10 18 19 19 19
46 47 50 55 56 60 62 59 54 51 49 48 46 43 40 21 13 12 9 8 8 9 11 15 18 23 23
50 52 57 57 57 53 46 43 43 42 40 31 20 13 12 11 10 8 9 10 13 15 16 16 15 16 22
53 53 50 44 40 37 34 33 27 17 14 13 12 10 10 10 10 13 16 17 16 15 17 18 19 20 23
41 37 34 31 27 22 17 15 15 14 12 11 11 11 12 14 18 18 18 17 18 19 20 21 21 23 22
23 19 17 15 16 16 16 15 14 13 12 12 13 15 19 19 18 19 19 18 19 20 23 24 23 20 21
16 17 16 17 17 16 15 14 13 13 12 15 19 20 20 20 20 21 19 18 20 22 24 27 27 24 23
18 17 18 17 17 16 15 15 15 16 18 21 22 22 22 23 23 24 25 26 26 27 30 30 30 27 25
18 18 18 17 18 18 17 17 19 22 24 24 22 23 24 26 27 30 33 35 35 35 35 34 33 30 29
19 19 20 21 21 19 19 22 26 26 26 25 24 27 29 32 34 35 38 39 40 41 39 36 33 33 34
21 22 23 23 23 22 25 28 29 29 27 27 28 31 34 37 39 41 43 46 44 42 39 36 36 37 37
24 26 26 26 27 28 30 31 32 31 30 30 32 34 38 42 44 48 49 45 44 45 41 40 40 40 40
29 30 29 30 32 33 33 34 34 33 33 35 37 39 42 45 48 51 50 49 49 47 46 44 44 43 43
34 33 33 34 35 36 37 38 37 37 38 40 42 45 47 49 52 53 55 53 52 50 46 47 48 47 48
38 37 37 38 38 40 41 43 43 42 44 45 47 48 50 54 55 56 55 54 54 51 48 47 52 52 53
42 40 40 40 42 45 46 48 49 47 49 50 51 51 53 58 61 62 60 57 58 57 54 48 52 56 59
48 47 46 44 45 48 50 50 50 50 53 56 58 57 59 60 64 64 62 65 63 61 60 56 52 59 62

GFSFLT2_prec_cthk_096.txt.gz
RH
48 47 46 49 50 49 51 53 56 57 56 53 52 50 50 50 48 46 39 21 13 11 12 18 18 19 19
46 46 48 50 53 54 56 54 53 47 43 43 44 43 39 35 26 13 11 10 9 9 9 10 15 18 22
47 49 52 53 54 51 47 40 39 39 39 36 34 24 15 12 11 10 9 10 11 14 15 15 15 14 16
52 53 51 44 39 35 34 32 30 28 21 15 14 13 11 10 10 10 12 16 17 16 16 17 16 17 18
50 43 38 34 32 28 24 19 16 15 15 14 12 11 11 11 13 16 17 16 17 17 18 17 17 18 20
38 32 25 21 19 17 16 16 18 15 13 13 12 12 15 18 17 16 17 18 19 20 21 19 17 18 21
20 18 19 18 18 17 17 16 16 16 14 14 16 20 20 17 17 18 18 19 21 23 25 25 25 25 27
20 20 20 18 17 17 17 18 17 16 17 20 23 23 20 18 18 19 20 23 25 28 29 30 31 31 30
22 21 20 18 18 20 21 20 21 21 24 26 25 24 20 20 21 22 24 27 31 34 36 36 37 36 32
22 21 20 20 22 23 22 22 24 28 28 29 28 24 23 24 25 26 28 30 33 37 40 41 38 37 36
23 22 23 25 26 25 25 27 29 30 31 32 31 27 28 29 30 31 33 35 38 41 42 42 42 41 38
25 26 28 29 30 29 30 31 32 33 35 35 36 33 33 34 35 38 39 40 43 44 44 44 45 47 44
30 32 33 33 33 34 35 35 36 37 39 40 41 41 39 40 42 46 46 49 51 51 53 50 49 49 47
37 38 38 37 37 38 39 39 40 42 44 45 45 47 47 47 51 53 55 57 60 60 59 59 55 53 50
42 43 42 41 41 42 42 44 46 48 49 48 49 52 54 52 54 57 59 59 59 63 64 63 63 61 58
47 49 48 47 47 48 49 49 51 53 53 52 54 54 51 50 52 53 56 58 61 64 65 65 68 68 67
51 53 54 54 55 55 52 51 53 52 49 50 51 47 47 47 48 50 42 41 46 51 57 60 59 69 72

GFSFLT2_prec_cthk_099.txt.gz
RH
49 53 50 47 46 47 49 49 49 50 51 51 47 44 43 44 42 39 39 37 32 18 10 8 9 12 15
52 51 48 46 49 49 50 51 50 49 47 42 39 38 37 36 34 30 20 13 10 9 7 8 8 12 16
49 48 48 50 55 54 51 45 40 38 35 33 32 32 28 19 14 12 11 9 8 8 10 13 13 14 14
51 49 50 56 51 43 37 33 31 31 27 24 18 15 13 12 11 11 10 10 11 14 14 13 14 16 16
52 52 54 43 38 34 32 28 24 17 16 15 14 13 12 12 12 12 15 15 14 14 15 15 17 18 18
56 51 41 34 30 26 22 19 18 16 15 15 14 14 13 15 18 19 16 14 15 16 17 18 19 20 22
46 34 25 22 20 20 19 17 16 17 18 16 16 16 19 21 21 19 16 15 16 17 19 21 22 23 24
25 23 22 21 21 20 18 17 18 19 19 18 20 22 24 23 22 19 17 17 18 20 22 25 27 28 30
25 24 23 22 21 19 19 20 22 22 22 24 24 25 26 26 25 22 20 21 23 24 26 28 30 32 35
25 25 23 22 21 21 22 24 24 27 26 28 27 28 28 29 30 29 27 26 27 29 31 34 36 37 39
26 25 24 23 24 26 27 27 27 30 30 30 30 32 33 34 34 34 35 35 35 38 40 41 43 44 45
27 27 29 31 30 31 31 31 32 34 34 34 36 38 39 40 39 40 42 43 43 43 44 46 48 50 52
30 33 34 35 35 35 35 36 38 38 38 40 41 44 44 43 45 47 47 47 47 47 50 53 55 56 58
36 38 40 39 39 39 39 42 43 43 44 44 47 49 47 46 47 48 47 47 49 49 49 52 55 58 61
42 43 43 44 44 45 46 48 49 49 48 50 52 48 44 44 45 44 42 40 42 39 36 40 44 45 46
45 46 48 49 52 53 53 54 55 54 54 55 53 42 40 39 38 36 35 31 28 34 45 49 43 45 48
48 50 51 53 54 55 57 59 60 59 57 55 47 37 36 34 34 34 28 28 32 46 53 54 48 47 54

GFSFLT2_prec_cthk_102.txt.gz
RH
60 54 57 54 52 47 47 47 49 52 53 52 52 50 44 38 37 38 38 37 34 30 22 11 9 8 7
61 56 59 55 49 47 51 49 52 52 52 50 46 40 37 35 34 33 31 23 14 11 10 9 7 6 9
58 60 53 55 49 57 52 55 50 43 40 37 35 32 31 30 23 15 13 11 10 10 10 10 11 12 11
61 56 52 52 59 55 50 42 37 33 32 31 27 20 16 15 14 12 11 11 12 14 15 12 12 12 13
57 53 57 59 51 47 40 35 32 27 21 18 16 15 16 14 13 13 14 16 18 16 14 13 14 14 15
60 60 64 51 46 39 33 29 25 20 18 16 15 16 16 15 16 19 21 20 18 17 16 15 16 16 17
65 62 47 45 34 27 23 22 21 19 17 17 18 18 17 19 22 22 22 22 22 19 17 17 18 19 20
60 40 36 27 25 24 22 21 20 19 20 20 19 20 22 24 24 24 24 25 25 24 22 22 24 25 26
30 34 28 26 25 24 22 20 20 22 23 23 23 25 26 26 26 27 28 29 29 28 29 29 30 32 34
35 30 28 27 25 23 22 22 25 25 26 28 28 29 29 29 30 32 33 33 32 33 34 34 36 38 40
31 31 29 27 25 24 27 30 29 29 30 32 32 32 33 33 35 37 35 32 33 36 38 39 39 41 43
34 31 29 27 27 31 33 33 33 34 35 36 37 37 37 38 41 40 34 34 36 37 37 37 39 41 42
34 32 31 31 34 36 37 37 38 39 41 42 43 43 44 46 48 39 34 35 35 36 36 37 37 35 39
36 35 36 38 40 41 40 41 43 45 47 49 50 50 51 52 50 36 34 34 32 33 33 26 24 33 41
41 43 44 44 45 45 46 48 51 52 53 54 54 55 56 55 46 33 30 29 29 27 22 21 31 42 48
47 47 47 46 47 48 50 52 55 56 56 57 58 58 57 54 41 30 28 28 27 24 23 25 37 49 53
50 50 50 50 50 52 54 55 57 59 60 63 64 63 61 56 42 29 29 29 27 26 26 31 41 53 57

GFSFLT2_prec_cthk_105.txt.gz
RH
72 78 69 67 60 59 57 54 51 51 56 56 61 59 53 51 43 38 35 35 35 34 31 25 15 11 9
76 69 67 68 61 57 55 53 53 61 58 63 56 50 44 41 36 34 34 33 29 18 12 11 11 10 10
72 71 66 66 60 55 55 55 63 62 57 51 43 38 35 33 32 31 25 16 13 12 12 12 14 15 13
74 73 64 64 62 56 59 61 55 49 44 36 34 33 30 23 17 16 14 13 13 14 15 17 16 15 14
70 70 70 69 62 59 65 52 46 42 36 29 24 19 16 15 16 15 14 15 17 19 19 19 18 17 16
70 73 73 66 67 69 54 48 43 34 25 22 19 16 16 17 17 16 18 21 22 22 22 23 22 21 19
71 73 69 66 68 60 45 40 33 28 23 20 18 18 19 19 19 21 23 23 23 24 25 25 24 23 22
68 66 70 70 52 38 34 29 30 25 22 20 19 21 22 23 24 25 26 25 26 27 27 24 24 25 27
64 67 61 42 34 35 31 30 26 23 22 22 23 24 26 26 27 28 28 29 30 31 26 26 26 29 32
54 41 35 36 36 33 31 27 24 24 26 27 28 29 30 30 31 31 32 33 35 32 27 27 29 31 34
35 39 38 38 35 34 29 26 27 31 32 32 32 33 34 35 35 36 37 39 40 31 29 31 33 33 32
41 40 39 38 36 32 29 30 34 35 36 36 37 38 39 40 42 42 44 46 43 31 32 31 30 30 30
43 42 41 39 34 33 32 35 39 40 39 41 43 45 47 47 48 48 50 50 41 31 29 29 28 25 20
45 44 43 39 37 37 38 41 43 42 45 47 51 53 54 55 56 55 55 53 40 29 27 26 21 18 18
49 48 45 43 43 44 46 47 48 48 50 52 56 58 60 60 59 58 56 53 37 26 25 23 22 21 22
52 50 49 49 49 49 49 49 49 50 51 54 58 60 63 61 62 61 58 55 34 26 25 24 22 24 26
51 52 52 52 52 52 51 51 52 55 57 59 61 66 70 70 66 64 62 58 34 29 27 26 25 25 26

GFSFLT2_prec_cthk_108.txt.gz
RH
68 68 72 75 78 79 68 66 62 58 53 53 55 61 58 63 56 53 47 40 36 35 34 32 26 17 12
71 68 73 68 78 73 69 66 61 56 55 58 64 59 59 55 47 43 39 35 35 34 25 14 12 12 12
55 60 62 65 75 75 70 66 61 56 60 63 59 53 49 41 38 36 34 32 28 17 13 13 13 13 16
56 63 59 71 76 76 75 71 60 60 64 55 43 43 38 37 35 28 19 16 15 14 15 15 17 19 18
56 60 63 67 78 74 75 72 65 68 54 42 41 34 30 24 18 16 16 16 15 16 18 20 21 21 21
58 62 66 71 72 76 75 69 67 55 46 43 35 27 23 18 16 16 17 17 18 22 23 23 23 24 21
61 65 63 68 73 77 70 72 62 53 42 32 29 25 20 18 18 18 20 22 24 24 25 26 26 24 21
63 66 69 72 76 72 72 64 48 41 35 33 28 22 20 20 20 22 24 26 26 27 27 29 30 25 22
67 70 73 76 72 69 55 42 39 37 35 30 25 23 23 24 26 27 28 28 29 29 31 33 32 25 23
73 75 78 73 58 42 36 37 39 38 32 27 26 27 29 29 30 31 32 32 33 34 37 39 33 25 25
69 65 53 43 38 38 39 42 39 34 29 28 32 33 34 34 34 35 36 37 38 40 43 45 35 27 26
46 44 45 41 41 41 43 41 37 33 31 35 38 38 38 38 39 40 42 43 45 47 50 49 37 26 25
45 44 43 44 44 44 44 42 37 35 35 39 41 41 42 43 46 48 49 51 52 53 54 51 38 26 24
45 43 44 47 50 49 45 41 41 39 40 44 46 46 48 51 54 54 56 56 56 57 57 53 38 23 21
46 57 57 53 53 50 46 46 45 45 48 50 52 52 54 57 59 59 60 59 60 60 59 55 40 24 22
61 54 54 58 56 53 51 51 51 52 53 53 52 53 57 61 64 64 66 66 66 65 63 60 42 27 24
57 55 62 59 57 56 55 55 53 54 54 54 55 59 64 67 71 72 71 71 71 68 67 62 45 27 24

GFSFLT2_prec_cthk_111.txt.gz
RH
75 80 81 79 81 80 82 77 81 75 66 63 60 56 56 58 64 66 63 60 50 41 35 32 30 25 17
78 76 66 72 81 72 74 72 82 74 66 64 58 56 56 66 63 62 57 47 43 37 34 30 19 13 13
59 58 60 59 64 67 68 69 72 80 71 66 59 61 62 60 55 50 42 39 36 32 27 16 13 14 14
49 53 53 59 62 66 67 78 72 75 75 64 64 61 52 49 47 41 40 32 23 17 15 14 15 17 19
52 55 54 59 64 69 67 63 75 74 73 65 63 53 43 41 38 34 25 18 16 16 15 16 19 21 21
53 61 66 63 64 65 67 69 77 78 70 70 56 49 40 36 29 24 18 17 16 16 17 21 23 23 24
62 64 66 68 70 67 65 69 76 76 73 63 53 44 39 30 27 20 18 18 18 20 23 24 25 26 26
64 66 68 68 67 66 69 74 76 78 71 54 43 37 33 33 24 21 20 21 24 25 25 26 27 29 31
66 68 68 68 68 70 74 76 81 70 52 46 38 36 36 28 24 22 23 26 27 28 28 30 31 33 35
70 70 70 70 74 76 78 81 62 43 42 38 41 41 31 27 26 27 29 30 30 31 33 34 36 38 41
72 70 71 74 73 70 62 51 44 42 39 42 44 33 29 31 31 33 33 33 34 36 38 40 42 45 47
67 61 60 54 49 45 45 47 44 40 47 46 38 34 32 36 37 37 37 38 41 43 45 47 49 51 52
54 50 46 44 45 46 46 46 44 51 49 42 37 37 40 42 42 41 42 45 50 52 53 55 56 56 54
54 49 47 46 47 45 45 50 52 53 48 43 40 39 43 46 46 46 49 54 57 58 59 60 60 60 57
51 51 49 48 48 49 57 56 59 55 49 46 45 46 48 50 51 51 54 55 58 62 64 64 63 62 60
55 52 52 56 59 59 61 64 59 56 54 53 52 53 54 54 53 53 55 60 66 68 69 71 69 63 63
55 55 62 67 63 65 71 65 62 59 58 57 55 54 53 53 53 55 65 71 74 75 76 76 74 69 66

GFSFLT2_prec_cthk_114.txt.gz
RH
88 87 87 88 83 87 84 85 81 87 81 69 75 71 63 56 59 60 65 70 67 69 52 43 34 30 26
76 74 71 67 73 63 66 70 71 64 72 68 69 73 63 60 63 61 67 66 67 54 48 37 33 26 15
51 50 49 52 53 58 59 61 62 64 72 67 67 73 63 64 67 66 65 59 54 45 40 33 27 15 14
43 50 47 49 54 59 62 67 66 67 75 67 69 76 65 63 61 56 55 54 45 42 29 20 15 15 16
46 49 51 53 57 58 63 65 69 70 73 64 75 78 69 59 54 46 45 46 40 27 17 16 15 16 20
49 50 54 58 62 63 68 67 67 72 67 71 74 77 71 56 50 41 32 30 28 19 16 16 17 20 23
53 58 59 62 64 65 66 71 73 73 71 72 78 76 68 55 45 36 35 32 24 18 17 18 22 24 24
59 62 63 64 67 71 74 73 74 73 73 77 78 77 58 44 37 40 37 29 22 20 21 24 25 25 26
62 64 64 65 69 73 75 75 73 75 79 80 82 65 45 43 41 40 37 27 23 24 26 26 27 28 29
66 67 67 67 71 74 74 76 79 81 84 81 58 45 42 44 41 47 32 27 27 29 29 29 30 31 33
69 70 69 69 71 75 77 80 83 82 66 48 45 44 46 47 51 37 32 31 31 32 32 33 35 36 39
74 68 64 58 62 62 62 62 56 49 45 45 46 45 51 52 42 36 35 36 37 37 37 39 41 44 47
65 62 57 51 51 52 49 46 45 43 54 50 47 56 54 44 39 40 41 41 42 42 44 47 49 52 55
66 60 54 49 49 49 48 47 48 49 48 51 57 59 51 47 44 45 46 47 48 50 52 55 56 58 60
67 63 57 52 52 50 47 48 48 48 52 59 64 55 50 48 47 49 51 54 54 55 56 58 58 62 64
66 65 59 55 54 51 50 52 55 59 65 68 59 57 55 55 55 55 56 55 54 55 59 67 69 68 68
69 65 60 58 55 58 63 62 63 69 72 65 63 64 64 61 58 56 56 55 55 61 72 77 77 70 69

GFSFLT2_prec_cthk_117.txt.gz
RH
81 77 79 81 79 83 79 77 79 73 68 70 69 70 66 66 72 63 62 63 64 73 70 69 62 45 35
52 53 55 56 54 52 52 54 57 56 60 65 64 65 70 65 71 64 64 63 68 68 66 67 52 43 33
41 42 40 40 41 45 49 51 54 59 60 62 67 64 71 67 70 68 67 67 67 63 63 56 49 39 27
36 38 40 44 47 47 50 54 57 58 64 64 68 69 75 67 73 73 68 66 60 56 53 44 43 27 16
36 40 45 48 49 56 58 59 61 62 65 69 75 72 73 69 76 75 60 57 54 50 48 40 27 16 15
40 44 46 50 55 57 60 64 68 70 70 73 74 76 73 74 78 73 54 50 48 42 37 33 20 16 16
44 49 52 56 59 63 65 69 70 71 70 74 75 75 76 78 79 71 51 45 37 32 32 29 19 17 20
47 51 58 62 63 68 72 71 71 74 76 76 78 77 79 82 80 63 44 39 38 36 38 25 20 21 24
51 55 59 62 64 70 74 73 75 78 79 77 80 82 83 84 71 45 43 38 41 45 31 26 24 25 26
55 58 63 66 67 70 72 73 74 77 76 78 84 86 87 71 49 43 47 43 50 41 31 30 27 27 28
58 61 65 67 69 72 73 74 77 78 80 82 83 77 60 47 42 46 46 51 50 37 35 32 30 30 32
60 62 65 68 67 64 64 66 74 77 74 73 58 48 48 49 51 55 59 52 42 39 37 36 35 35 36
55 56 57 60 62 57 52 54 55 54 51 48 45 45 46 48 54 65 52 44 43 42 42 41 40 41 44
54 54 57 58 60 56 51 50 49 49 47 44 56 59 52 57 61 56 49 48 47 47 46 47 48 51 54
57 57 57 57 61 58 54 52 52 47 46 50 50 51 58 65 60 55 52 52 52 52 53 56 57 57 58
63 60 58 58 61 58 57 55 51 49 50 51 54 61 66 67 59 57 56 56 58 61 62 61 60 61 63
66 62 63 63 63 57 57 58 57 56 58 61 66 68 69 67 64 64 65 64 64 63 61 63 65 67 69